Regional Weather Roundup
Issued by NWS

Home | Current Version | Previous Version | Graphics & Text | Print | Product List | Glossary On
Versions: 1 2 3 4 5 6 7 8 9 10 11 12 13 14 15 16 17 18 19 20 21 22 23 24 25 26 27 28 29 30 31 32 33 34 35 36 37 38 39 40 41 42 43 44 45 46 47 48 49 50
000
ASUS45 KPSR 312200
RWRAZ

PRELIMINARY ARIZONA REGIONAL HOURLY WEATHER ROUNDUP
NATIONAL WEATHER SERVICE PHOENIX AZ
300 PM MST THU JUL 31 2014

NOTE: FAIR INDICATES FEW OR NO CLOUDS BELOW 12,000 FEET WITH NO
SIGNIFICANT WEATHER AND/OR OBSTRUCTIONS TO VISIBILITY.

AZZ001>003-036-312300-
NORTHWEST ARIZONA

CITY           SKY/WX    TMP DP  RH WIND       PRES   REMARKS
KINGMAN        PTSUNNY  100  43  14 W12G23    30.01S
$$

AZZ004>008-015-016-018-312300-
NORTH CENTRAL ARIZONA

CITY           SKY/WX    TMP DP  RH WIND       PRES   REMARKS
GRAND CANYON   CLOUDY    78  43  28 SW10      30.27F
WILLIAMS       CLOUDY    64  52  63 E9        30.40R
PRESCOTT       PTSUNNY   89  50  26 VRB7      30.16F
FLAGSTAFF      TSTM      58  52  80 VRB6G20   30.40R VSB 1
PAYSON         MOSUNNY   88  52  29 SW13      30.20F
PAGE           CLOUDY    98  43  15 N16G25    30.03F
$$

AZZ009>014-017-312300-
NORTHEAST ARIZONA

CITY           SKY/WX    TMP DP  RH WIND       PRES   REMARKS
WINSLOW        NOT AVBL
SAINT JOHNS    MOSUNNY   90  49  24 W16G24    30.16F
WINDOW ROCK    CLOUDY    64  54  69 SW8       30.27F
$$

AZZ023-312300-
GREATER PHOENIX AREA

CITY           SKY/WX    TMP DP  RH WIND       PRES   REMARKS
PHOENIX        PTSUNNY  106  54  17 VRB3      29.83F HX 104
BUCKEYE        SUNNY    104  52  17 S7        29.84F HX 101
GLENDALE       PTSUNNY  106  54  17 E6        29.85F HX 104
DEER VALLEY    SUNNY    104  53  18 NW6       29.87F HX 102
SCOTTSDALE     SUNNY    103  55  20 SE3       29.89F HX 101
MESA-FALCON    PTSUNNY  108  55  18 SE9       29.87F HX 106
MESA-GATEWAY   PTSUNNY  104  55  20 SW7       29.89F HX 103
CHANDLER       PTSUNNY  104  54  18 W7        29.87F HX 102
$$

AZZ027-028-312300-
SOUTHWEST MARICOPA COUNTY AND PINAL COUNTY

CITY           SKY/WX    TMP DP  RH WIND       PRES   REMARKS
CASA GRANDE    PTSUNNY  100  55  22 S5        29.90F
$$

AZZ503-504-507>509-312300-
SOUTHEAST ARIZONA

CITY           SKY/WX    TMP DP  RH WIND       PRES   REMARKS
TUCSON         CLOUDY    96  55  25 NE18      30.01F
DAVIS-MONTHAN  CLOUDY    92  57  30 NE16      29.99F
RYAN FIELD     SUNNY     93  55  27 NW3       29.99F
NOGALES        MOSUNNY   93  55  27 N7        30.08F
SIERRA VISTA   PTSUNNY   82  54  36 CALM      30.15F
SAFFORD        MOSUNNY   94  52  24 W12G18    29.99F
$$

AZZ020-021-025-026-031-312300-
SOUTHWEST ARIZONA

CITY           SKY/WX    TMP DP  RH WIND       PRES   REMARKS
YUMA           PTSUNNY  109  64  23 S12       29.77F HX 113
$$

CAZ031-033-041-043-047-048-061-312300-
SOUTHERN CALIFORNIA

CITY           SKY/WX    TMP DP  RH WIND       PRES   REMARKS
DOWNTOWN L.A.  SUNNY     81  62  52 SW5       29.87F
L.A. AIRPORT   MOSUNNY   75  62  64 W13       29.90F
SAN DIEGO      PTSUNNY   79  66  64 W10       29.90F
BURBANK        SUNNY     92  61  35 S9        29.87F
ONTARIO        MOSUNNY   98  58  26 W13       29.88F
RIVERSIDE      SUNNY     98  57  25 W13G18    29.86F
PALM SPRINGS   MOSUNNY  109  54  16 E12       29.79F HX 107
EL CENTRO NAS  PTSUNNY  109  53  15 E6        29.74F HX 107
IMPERIAL       PTSUNNY  109  59  19 MISG      29.74F HX 110
BLYTHE           N/A    N/A N/A N/A MISG      29.77F
$$

NVZ020-UTZ003-312300-
SOUTHERN NEVADA-UTAH

CITY           SKY/WX    TMP DP  RH WIND       PRES   REMARKS
LAS VEGAS      NOT AVBL
SALT LAKE CITY PTSUNNY   84  51  31 NW10G16   30.12F
$$

NMZ009-TXZ055-312300-
NEW MEXICO-WEST TEXAS

CITY           SKY/WX    TMP DP  RH WIND       PRES   REMARKS
ALBUQUERQUE    PTSUNNY   80  56  43 SW6       30.19F
EL PASO        MOSUNNY   89  56  32 N6        30.08F
$$


........................KEY........................
SKY/WX - SKY CONDITION/WEATHER
TMP    - TEMPERATURE IN FAHRENHEIT
DP     - DEW POINT IN FAHRENHEIT
RH     - RELATIVE HUMIDITY IN PERCENT
WIND   - DIRECTION AND SPEED IN MILES PER HOUR (MPH)
VRB    - VARIABLE WIND DIRECTION
PRES   - MEAN SEA LEVEL PRESSURE IN INCHES OF MERCURY
         F - FALLING PRESSURE   R - RISING PRESSURE
         S - STEADY PRESSURE
VSB    - VISIBILITY IN MILES
HX     - HEAT INDEX IN FAHRENHEIT
WCI    - WIND CHILL INDEX IN FAHRENHEIT
TC     - TEMPERATURE IN CELSIUS WHICH IS ALSO KNOWN AS
         TEMPERATURE IN CENTIGRADE
AFB    - AIR FORCE BASE
         LUKE AFB IS LUKE AIR FORCE BASE
         DAVIS-MONTHAN IS DAVIS-MONTHAN AIR FORCE BASE
NAS    - NAVAL AIR STATION
         EL CENTRO NAS IS EL CENTRO NAVAL AIR STATION
N/A    - NOT AVAILABLE



USA.gov is the U.S. government's official web portal to all federal, state and local government web resources and services.